weather.gov     
National Weather Service

Weather Roundup
NWS Homepage
This page is being discontinued on March 12, 2014.
The same data is available at this site. Please update your bookmarks.
Thank you, and we apologize for the inconvenience.
Please send an email to SR-SRH.Webmaster@noaa.gov with any concerns.


Current Version
Previous Version:    01  02  03  04  05  06  07  08  09  10  11  12  13  14  15  16  17  18  19  20  21  22  23  24  25  26  27  28  29  30  
   31  32  33  34  35  36  37  38  39  40  41  42  43  44  45  46  47  48  49  50  51  52  53  54  55  56  57  58  59  60  
[Printable]
170
NZUS99 KSGF 180107
HRRSGF

HOURLY WEATHER
NATIONAL WEATHER SERVICE SPRINGFIELD MO
800 PM CDT WED SEP 17 2014

......SGF CWA......

CITY           SKY/WX    TMP DP  RH WIND       PRES   REMARKS
SPRINGFIELD    CLEAR     66  63  90 E3        29.90R
JOPLIN         PTCLDY    69  63  81 CALM      29.87S
WEST PLAINS    PTCLDY    63  60  90 CALM      29.94R
ROLLA          FOG       63  62  97 SE5       29.92R VSB 3/4
OSAGE BEACH    CLOUDY    70  64  83 E6        29.92R
BRANSON        MOCLDY    64  64 100 CALM      29.92S

......SURROUNDING SGF CWA......

CITY           SKY/WX    TMP DP  RH WIND       PRES   REMARKS
CHANUTE        PTCLDY    78  72  81 E10       29.86R
PARSONS        PTCLDY    78  70  76 VRB5      29.85R
COFFEYVILLE    FAIR      77  63  61 SE16G24   29.84R
EMPORIA        CLEAR     72  67  84 E9        29.87R
GROVE OK       MOCLDY    72  66  83 CALM      29.87F
ROGERS AR      CLOUDY    67  64  90 S6        29.91F
SILOAM SPRINGS CLOUDY    66  61  82 S6        29.92S
HARRISON AR    CLOUDY    64  64 100 VRB3      29.91R
NEAR YELLVILLE MOCLDY    64  61  88 CALM      29.91R VSB 1/4

......KANSAS AND MISSOURI......

CITY           SKY/WX    TMP DP  RH WIND       PRES   REMARKS
KANSAS CTY INT PTCLDY    69  64  84 E7        29.91R
DOWNTOWN KC    CLEAR     69  65  86 E5        29.90R
COLUMBIA       FOG       62  61  96 NE7       29.95R VSB 1
SEDALIA        CLOUDY    68  65  90 E8        29.93S
ST JOSEPH      MOCLDY    69  64  84 E6        29.90R
ST LOUIS       CLOUDY    63  56  78 E7        29.97R
SPIRIT OF STL  CLOUDY    62  60  93 E5        29.95S
KIRKSVILLE     CLOUDY    65  60  84 E6        29.97R
WICHITA        PTCLDY    86  59  39 SE7       29.80R
TOPEKA         CLEAR     70  67  90 E6        29.89S
OLATHE         PTCLDY    68  64  87 E3        29.90S

......TENNESSEE......

CITY           SKY/WX    TMP DP  RH WIND       PRES   REMARKS
MEMPHIS        CLOUDY    72  63  73 SE3       29.91R
NASHVILLE      CLOUDY    65  58  78 CALM      29.97R

......ARKANSAS.......

CITY           SKY/WX    TMP DP  RH WIND       PRES   REMARKS
FAYETTEVILLE   CLOUDY    67  32  27 CALM      29.89F
FT SMITH       HVY RAIN  73  68  84 NE26      29.90R
LITTLE ROCK    MOCLDY    78  68  71 S8        29.87F

......OKLAHOMA.......

CITY           SKY/WX    TMP DP  RH WIND       PRES   REMARKS
TULSA          CLOUDY    87  70  56 S9        29.82R HX  92
PONCA CITY     CLOUDY    87  65  47 VRB6      29.81R
MCALESTER      CLOUDY    82  72  71 SE7       29.88R
OKLAHOMA CITY  CLOUDY    81  68  64 S6        29.86R

......IOWA............

CITY           SKY/WX    TMP DP  RH WIND       PRES   REMARKS
DES MOINES     PTCLDY    70  56  61 E5        29.94R
QUAD CITIES    CLEAR     56  52  86 CALM      29.97R

......ILLINOIS........

CITY           SKY/WX    TMP DP  RH WIND       PRES   REMARKS
QUINCY         CLOUDY    64  57  78 SE6       29.97R
CHICAGO        CLEAR     63  46  54 E5        29.99R





U.S. Dept. of Commerce
NOAA National Weather Service
1325 East West Highway
Silver Spring, MD 20910
E-mail: w-nws.webmaster@noaa.gov
Page last modified: May 16, 2007
NATIONAL WEATHER SERVICE: for Safety, for Work, for Fun - FOR LIFE